Regional Weather Roundup
Issued by NWS

Home | Current Version | Previous Version | Text Only | Print | Product List | Glossary On
Versions: 1 2 3 4 5 6 7 8 9 10 11 12 13 14 15 16 17 18 19 20 21 22 23 24 25 26 27 28 29 30 31 32 33 34 35 36 37 38 39 40 41 42 43 44 45 46 47 48 49 50
000
ASUS43 KOAX 171302
RWRNE

WEATHER ROUNDUP FOR NEBRASKA
NATIONAL WEATHER SERVICE OMAHA NE
700 AM CST FRI NOV 17 2017

NOTES: SATELLITE DATA IS BEING USED TO AUGMENT CLOUD COVER ABOVE
       12000 FEET.
       "FAIR" INDICATES FEW OR NO CLOUDS BELOW 12,000 FEET WITH NO
       SIGNIFICANT WEATHER AND/OR OBSTRUCTIONS TO VISIBILITY.


NEZ001>004-019>022-054>056-171400-
NEBRASKA PANHANDLE

CITY           SKY/WX    TMP DP  RH WIND       PRES   REMARKS
SCOTTSBLUFF    CLOUDY    41  27  57 NE13G21   29.64R
ALLIANCE       CLOUDY    31  27  85 N7        29.66R WCI  24
CHADRON        MIX PCPN  38  29  70 W5        29.68R WCI  34
GORDON         PTSUNNY   35  27  73 CALM      29.65S
KIMBALL        CLOUDY    34  27  77 CALM      29.64S
SIDNEY         CLOUDY    33  26  75 NW10      29.63S WCI  25
$$

NEZ057>060-069>072-079>082-171400-
SOUTHWEST NEBRASKA

CITY           SKY/WX    TMP DP  RH WIND       PRES   REMARKS
NORTH PLATTE   CLOUDY    35  33  92 N5        29.61S WCI  31
LEXINGTON      FOG       35  34  95 CALM      29.59R VSB 1/2
MCCOOK         MOCLDY    38  34  85 W9        29.59F WCI  31
OGALLALA       CLOUDY    42  34  72 NE9       29.62R
$$

NEZ005>010-023>029-035>040-094-171400-
NORTH CENTRAL NEBRASKA

CITY           SKY/WX    TMP DP  RH WIND       PRES   REMARKS
VALENTINE      CLEAR     39  28  64 N10       29.64R WCI  32
AINSWORTH      CLEAR     37  31  79 N9        29.62S WCI  31
BROKEN BOW     CLEAR     35  33  92 N7        29.60R WCI  29
O`NEILL        CLOUDY    41  35  80 NW8       29.60R
ORD            FOG       31  31 100 CALM      29.60S VSB 1/4
THEDFORD       CLEAR     36  30  79 NW5       29.65R WCI  32
$$

NEZ041-046>049-061>064-073>077-083>087-171400-
SOUTH CENTRAL NEBRASKA

CITY           SKY/WX    TMP DP  RH WIND       PRES   REMARKS
GRAND ISLAND   CLOUDY    50  49  96 S10       29.59F
AURORA         CLOUDY    52  49  90 S9        29.61S
HASTINGS       CLOUDY    51  48  89 S8        29.60F
HEBRON         CLOUDY    58  53  83 S8        29.61F
HOLDREGE       FOG       43  43 100 S6        29.57F VSB 3/4
KEARNEY        FOG       42  42 100 CALM      29.59F VSB 1
$$

NEZ011>018-030>034-042>045-171400-
NORTHEAST NEBRASKA

CITY           SKY/WX    TMP DP  RH WIND       PRES   REMARKS
NORFOLK        CLOUDY    49  45  86 S7        29.61R
ALBION         CLOUDY    52  48  88 SW8       29.61S
BLAIR          CLOUDY    51  44  76 S15       29.64S
COLUMBUS       CLOUDY    47  43  86 SE5       29.62S
FREMONT        CLOUDY    49  40  72 SE10G16   29.64R
TEKAMAH        CLOUDY    48  39  71 S9        29.64F
WAYNE          CLOUDY    46  38  74 S7        29.63R
$$

NEZ050>053-065>068-078-088>093-171400-
SOUTHEAST NEBRASKA

CITY           SKY/WX    TMP DP  RH WIND       PRES   REMARKS
LINCOLN        CLOUDY    55  49  80 S9        29.64F
OMAHA EPPLEY   CLOUDY    53  44  71 S21       29.64F
BEATRICE       CLOUDY    58  54  86 S12       29.62F
FALLS CITY     CLOUDY    55  51  86 S14       29.68F
NEBRASKA CITY  CLOUDY    53  51  92 S16       29.66F
PLATTSMOUTH    CLOUDY    51  46  82 SE12G17   29.66F
$$

NEZ044-045-051>053-067-171400-
OMAHA AREA

CITY           SKY/WX    TMP DP  RH WIND       PRES   REMARKS
OMAHA EPPLEY   CLOUDY    53  44  71 S21       29.64F
BLAIR          CLOUDY    51  44  76 S15       29.64S
FREMONT        CLOUDY    49  40  72 SE10G16   29.64R
MILLARD        CLOUDY    52  44  74 SE10      29.65F
OFFUTT AFB     CLOUDY    53  45  76 SE13      29.65F
PLATTSMOUTH    CLOUDY    51  46  82 SE12G17   29.66F
WAHOO          CLOUDY    49  40  70 SE8       29.64S
$$




USA.gov is the U.S. government's official web portal to all federal, state and local government web resources and services.